Time,TemperatureF,DewpointF,PressureIn,WindDirection,WindDirectionDegrees,WindSpeedMPH,WindSpeedGustMPH,Humidity,HourlyPrecipIn,Conditions,Clouds,dailyrainin,SolarRadiationWatts/m^2,SoftwareType,DateUTC
2017-03-23 00:07:00,37.1,24.0,30.25,SSE,155,0.0,3.0,59,0.00,,,0.00,0,weatherlink.com 1.10,2017-03-23 05:07:00,
2017-03-23 00:22:00,37.0,23.0,30.24,South,169,0.0,6.0,58,0.00,,,0.00,0,weatherlink.com 1.10,2017-03-23 05:22:00,
2017-03-23 00:37:00,37.0,24.0,30.24,SSE,160,0.0,6.0,59,0.00,,,0.00,0,weatherlink.com 1.10,2017-03-23 05:37:00,
2017-03-23 00:52:00,37.0,24.0,30.23,South,172,0.0,9.0,59,0.00,,,0.00,0,weatherlink.com 1.10,2017-03-23 05:52:00,
2017-03-23 01:07:00,37.0,24.0,30.23,South,182,0.0,10.0,59,0.00,,,0.00,0,weatherlink.com 1.10,2017-03-23 06:07:00,
2017-03-23 01:22:00,37.0,24.0,30.23,South,180,0.0,9.0,60,0.00,,,0.00,0,weatherlink.com 1.10,2017-03-23 06:22:00,
2017-03-23 01:37:00,36.9,24.0,30.23,South,182,0.0,10.0,60,0.00,,,0.00,0,weatherlink.com 1.10,2017-03-23 06:37:00,
2017-03-23 01:52:00,37.0,25.0,30.23,South,175,0.0,9.0,61,0.00,,,0.00,0,weatherlink.com 1.10,2017-03-23 06:52:00,
2017-03-23 02:07:00,36.9,24.0,30.22,SSE,152,0.0,12.0,61,0.00,,,0.00,0,weatherlink.com 1.10,2017-03-23 07:07:00,
2017-03-23 02:22:00,36.9,24.0,30.21,SSE,161,4.0,9.0,61,0.00,,,0.00,0,weatherlink.com 1.10,2017-03-23 07:22:00,
2017-03-23 02:37:00,36.9,25.0,30.20,South,180,0.0,5.0,62,0.00,,,0.00,0,weatherlink.com 1.10,2017-03-23 07:37:00,
2017-03-23 02:52:00,36.8,25.0,30.19,South,172,0.0,11.0,63,0.00,,,0.00,0,weatherlink.com 1.10,2017-03-23 07:52:00,
2017-03-23 03:07:00,36.8,25.0,30.19,SSE,164,0.0,10.0,63,0.00,,,0.00,0,weatherlink.com 1.10,2017-03-23 08:07:00,
2017-03-23 03:22:00,36.8,25.0,30.19,SSE,163,0.0,6.0,63,0.00,,,0.00,0,weatherlink.com 1.10,2017-03-23 08:22:00,
2017-03-23 03:37:00,36.9,25.0,30.19,South,181,0.0,8.0,63,0.00,,,0.00,0,weatherlink.com 1.10,2017-03-23 08:37:00,
2017-03-23 03:52:00,36.8,26.0,30.17,South,169,0.0,7.0,64,0.00,,,0.00,0,weatherlink.com 1.10,2017-03-23 08:52:00,
2017-03-23 04:07:00,36.8,26.0,30.17,SSE,153,0.0,3.0,64,0.00,,,0.00,0,weatherlink.com 1.10,2017-03-23 09:07:00,
2017-03-23 04:22:00,36.8,26.0,30.16,SSE,153,0.0,0.0,65,0.00,,,0.00,0,weatherlink.com 1.10,2017-03-23 09:22:00,
2017-03-23 04:52:00,36.6,26.0,30.16,SE,129,0.0,0.0,65,0.00,,,0.00,0,weatherlink.com 1.10,2017-03-23 09:52:00,
2017-03-23 05:07:00,36.6,26.0,30.16,SE,124,0.0,4.0,66,0.00,,,0.00,0,weatherlink.com 1.10,2017-03-23 10:07:00,
2017-03-23 05:22:00,36.6,26.0,30.15,SSE,164,0.0,7.0,66,0.00,,,0.00,0,weatherlink.com 1.10,2017-03-23 10:22:00,
2017-03-23 05:37:00,36.6,26.0,30.14,SSE,165,0.0,2.0,66,0.00,,,0.00,0,weatherlink.com 1.10,2017-03-23 10:37:00,
2017-03-23 05:52:00,36.5,26.0,30.14,SSE,166,0.0,5.0,66,0.00,,,0.00,0,weatherlink.com 1.10,2017-03-23 10:52:00,
2017-03-23 06:07:00,36.5,26.0,30.13,SSE,163,0.0,3.0,66,0.00,,,0.00,0,weatherlink.com 1.10,2017-03-23 11:07:00,
2017-03-23 06:22:00,36.5,26.0,30.13,SSE,158,0.0,3.0,66,0.00,,,0.00,0,weatherlink.com 1.10,2017-03-23 11:22:00,
2017-03-23 06:37:00,36.4,26.0,30.12,SSE,159,0.0,0.0,66,0.00,,,0.00,0,weatherlink.com 1.10,2017-03-23 11:37:00,
2017-03-23 06:52:00,36.4,26.0,30.12,SSE,164,0.0,8.0,66,0.00,,,0.00,0,weatherlink.com 1.10,2017-03-23 11:52:00,
2017-03-23 07:07:00,36.4,26.0,30.12,South,175,0.0,7.0,66,0.00,,,0.00,0,weatherlink.com 1.10,2017-03-23 12:07:00,
2017-03-23 07:38:00,36.3,27.0,30.10,SSE,165,0.0,3.0,68,0.00,,,0.00,14,weatherlink.com 1.10,2017-03-23 12:38:00,
2017-03-23 07:53:00,36.4,27.0,30.10,SSE,148,0.0,6.0,68,0.00,,,0.00,25,weatherlink.com 1.10,2017-03-23 12:53:00,
2017-03-23 08:08:00,36.5,27.0,30.09,SSE,149,0.0,0.0,68,0.00,,,0.00,44,weatherlink.com 1.10,2017-03-23 13:08:00,
2017-03-23 08:23:00,36.8,27.0,30.09,SSE,148,0.0,0.0,68,0.00,,,0.00,90,weatherlink.com 1.10,2017-03-23 13:23:00,
2017-03-23 08:38:00,37.3,27.0,30.08,SE,146,0.0,5.0,67,0.00,,,0.00,88,weatherlink.com 1.10,2017-03-23 13:38:00,
2017-03-23 08:53:00,37.5,27.0,30.08,SSE,148,0.0,0.0,66,0.00,,,0.00,54,weatherlink.com 1.10,2017-03-23 13:53:00,
2017-03-23 09:08:00,37.6,27.0,30.07,South,187,0.0,8.0,65,0.00,,,0.00,88,weatherlink.com 1.10,2017-03-23 14:08:00,
2017-03-23 09:23:00,37.8,27.0,30.06,South,176,2.0,8.0,66,0.00,,,0.00,90,weatherlink.com 1.10,2017-03-23 14:23:00,
2017-03-23 09:38:00,37.9,27.0,30.06,South,175,0.0,7.0,65,0.00,,,0.00,74,weatherlink.com 1.10,2017-03-23 14:38:00,
2017-03-23 09:53:00,37.7,27.0,30.06,SSE,152,0.0,12.0,66,0.00,,,0.00,54,weatherlink.com 1.10,2017-03-23 14:53:00,
2017-03-23 10:08:00,37.6,27.0,30.05,South,171,6.0,15.0,66,0.00,,,0.00,53,weatherlink.com 1.10,2017-03-23 15:08:00,
2017-03-23 10:23:00,37.5,27.0,30.04,South,183,0.0,12.0,67,0.00,,,0.00,67,weatherlink.com 1.10,2017-03-23 15:23:00,
2017-03-23 10:38:00,37.8,28.0,30.03,SSE,164,0.0,7.0,67,0.00,,,0.00,98,weatherlink.com 1.10,2017-03-23 15:38:00,
2017-03-23 10:53:00,38.1,28.0,30.02,South,179,0.0,11.0,67,0.00,,,0.00,158,weatherlink.com 1.10,2017-03-23 15:53:00,
2017-03-23 11:08:00,38.6,28.0,30.02,South,184,0.0,14.0,67,0.00,,,0.00,156,weatherlink.com 1.10,2017-03-23 16:08:00,
2017-03-23 11:23:00,39.1,29.0,30.00,South,185,0.0,15.0,66,0.00,,,0.00,113,weatherlink.com 1.10,2017-03-23 16:23:00,
2017-03-23 11:38:00,39.1,29.0,30.01,South,182,0.0,10.0,66,0.00,,,0.00,83,weatherlink.com 1.10,2017-03-23 16:38:00,
2017-03-23 11:53:00,39.0,29.0,30.02,South,184,0.0,10.0,67,0.00,,,0.00,70,weatherlink.com 1.10,2017-03-23 16:53:00,
2017-03-23 12:08:00,39.0,29.0,30.02,South,175,0.0,12.0,67,0.00,,,0.00,63,weatherlink.com 1.10,2017-03-23 17:08:00,
2017-03-23 12:23:00,39.0,29.0,30.02,South,190,0.0,14.0,68,0.00,,,0.00,132,weatherlink.com 1.10,2017-03-23 17:23:00,
2017-03-23 12:38:00,39.2,29.0,29.99,South,184,0.0,13.0,67,0.00,,,0.00,141,weatherlink.com 1.10,2017-03-23 17:38:00,
2017-03-23 12:53:00,39.2,29.0,29.97,South,175,0.0,10.0,68,0.00,,,0.00,135,weatherlink.com 1.10,2017-03-23 17:53:00,
2017-03-23 13:09:00,39.3,30.0,29.96,South,188,4.0,16.0,69,0.00,,,0.00,113,weatherlink.com 1.10,2017-03-23 18:09:00,
2017-03-23 13:24:00,39.2,30.0,29.93,SE,129,0.0,11.0,70,0.00,,,0.00,127,weatherlink.com 1.10,2017-03-23 18:24:00,
2017-03-23 13:39:00,39.2,31.0,29.91,SSE,154,0.0,9.0,71,0.00,,,0.00,113,weatherlink.com 1.10,2017-03-23 18:39:00,
2017-03-23 13:54:00,39.6,31.0,29.91,East,101,0.0,8.0,72,0.00,,,0.00,309,weatherlink.com 1.10,2017-03-23 18:54:00,
2017-03-23 14:09:00,39.8,31.0,29.94,South,185,0.0,11.0,70,0.00,,,0.00,84,weatherlink.com 1.10,2017-03-23 19:09:00,
2017-03-23 14:24:00,39.2,31.0,29.93,South,172,0.0,7.0,71,0.00,,,0.00,53,weatherlink.com 1.10,2017-03-23 19:24:00,
2017-03-23 14:39:00,38.9,31.0,29.92,South,169,0.0,8.0,72,0.00,,,0.00,37,weatherlink.com 1.10,2017-03-23 19:39:00,
2017-03-23 14:54:00,38.7,31.0,29.91,South,174,0.0,5.0,73,0.00,,,0.00,26,weatherlink.com 1.10,2017-03-23 19:54:00,
2017-03-23 15:09:00,38.7,31.0,29.90,SE,138,0.0,3.0,74,0.00,,,0.00,58,weatherlink.com 1.10,2017-03-23 20:09:00,
2017-03-23 15:24:00,38.6,31.0,29.89,ESE,117,0.0,4.0,74,0.00,,,0.00,42,weatherlink.com 1.10,2017-03-23 20:24:00,
2017-03-23 15:39:00,38.6,31.0,29.87,ESE,114,0.0,4.0,75,0.00,,,0.00,30,weatherlink.com 1.10,2017-03-23 20:39:00,
2017-03-23 15:54:00,38.6,32.0,29.88,SSE,152,0.0,11.0,76,0.00,,,0.00,40,weatherlink.com 1.10,2017-03-23 20:54:00,
2017-03-23 16:09:00,38.6,32.0,29.89,SSE,162,0.0,11.0,77,0.00,,,0.00,28,weatherlink.com 1.10,2017-03-23 21:09:00,
2017-03-23 16:39:00,38.4,32.0,29.85,SSE,158,0.0,5.0,78,0.00,,,0.00,16,weatherlink.com 1.10,2017-03-23 21:39:00,
2017-03-23 16:54:00,38.5,33.0,29.86,SSE,153,0.0,5.0,79,0.00,,,0.00,19,weatherlink.com 1.10,2017-03-23 21:54:00,
2017-03-23 17:09:00,38.1,33.0,29.83,SSE,159,0.0,9.0,82,0.00,,,0.00,12,weatherlink.com 1.10,2017-03-23 22:09:00,
2017-03-23 17:24:00,37.3,33.0,29.83,SSE,159,0.0,0.0,85,0.01,,,0.01,11,weatherlink.com 1.10,2017-03-23 22:24:00,
2017-03-23 17:39:00,37.1,34.0,29.82,South,173,0.0,0.0,87,0.01,,,0.01,19,weatherlink.com 1.10,2017-03-23 22:39:00,